ARG4522 SLGY-SLRI

Flight info

Callsign ARG4522
Flight time 0h 15m
Altitude 8000
Route ILSAP DCT EDSOV DCT ILMAD
Aircraft B737/M-SDE2E3FGHIRWXY/LB1

Departure

Time 2026-04-14 10:39
Airport Capitán de Av. Emilio Beltrán Airport (SLGY)

Arrival

Time 2026-04-14 10:55
Airport Capitán Av. Selin Zeitun Lopez Airport (SLRI)
Time Latitude Longitude Altitude Speed Heading
2026-04-14 10:33 -10.82886 -65.34396 432 ft 0 kts 344°
2026-04-14 10:39 -10.82645 -65.34466 423 ft 84 kts 344°
2026-04-14 10:39 -10.81806 -65.34703 539 ft 155 kts 345°
2026-04-14 10:39 -10.80680 -65.35008 1286 ft 181 kts 346°
2026-04-14 10:40 -10.79403 -65.35326 2231 ft 197 kts 347°
2026-04-14 10:40 -10.78023 -65.35697 2969 ft 218 kts 343°
2026-04-14 10:40 -10.76683 -65.36584 3472 ft 244 kts 306°
2026-04-14 10:40 -10.76152 -65.38213 4435 ft 249 kts 270°
2026-04-14 10:41 -10.76478 -65.39985 5302 ft 264 kts 250°
2026-04-14 10:41 -10.77239 -65.41704 6387 ft 269 kts 244°
2026-04-14 10:41 -10.78107 -65.43409 7440 ft 275 kts 243°
2026-04-14 10:41 -10.79007 -65.45144 7829 ft 278 kts 242°
2026-04-14 10:42 -10.79910 -65.46894 7986 ft 280 kts 243°
2026-04-14 10:42 -10.80810 -65.48659 7992 ft 281 kts 243°
2026-04-14 10:42 -10.81702 -65.50424 8004 ft 280 kts 243°
2026-04-14 10:42 -10.82586 -65.52189 8008 ft 280 kts 243°
2026-04-14 10:43 -10.83468 -65.53956 8008 ft 280 kts 243°
2026-04-14 10:43 -10.83586 -65.54194 8009 ft 280 kts 243°
2026-04-14 10:44 -10.83880 -65.54785 8011 ft 280 kts 243°
2026-04-14 10:44 -10.84760 -65.56556 8013 ft 281 kts 243°
2026-04-14 10:44 -10.85639 -65.58329 8012 ft 281 kts 243°
2026-04-14 10:44 -10.86517 -65.60102 8009 ft 281 kts 244°
2026-04-14 10:45 -10.87396 -65.61879 8007 ft 281 kts 244°
2026-04-14 10:45 -10.88273 -65.63652 8002 ft 281 kts 243°
2026-04-14 10:45 -10.89151 -65.65428 8001 ft 281 kts 244°
2026-04-14 10:45 -10.90029 -65.67206 8002 ft 281 kts 244°
2026-04-14 10:46 -10.90907 -65.68983 7997 ft 281 kts 244°
2026-04-14 10:46 -10.91791 -65.70774 7792 ft 286 kts 244°
2026-04-14 10:46 -10.92684 -65.72582 7529 ft 287 kts 244°
2026-04-14 10:46 -10.93576 -65.74388 7198 ft 283 kts 244°
2026-04-14 10:47 -10.94455 -65.76168 6844 ft 279 kts 244°
2026-04-14 10:47 -10.95315 -65.77910 6490 ft 274 kts 244°
2026-04-14 10:47 -10.96291 -65.79560 6113 ft 273 kts 229°
2026-04-14 10:47 -10.97636 -65.80912 5772 ft 271 kts 223°
2026-04-14 10:48 -10.99012 -65.82225 5404 ft 273 kts 223°
2026-04-14 10:48 -11.00385 -65.83551 5029 ft 270 kts 224°
2026-04-14 10:48 -11.01731 -65.84868 4654 ft 267 kts 224°
2026-04-14 10:48 -11.03026 -65.86145 4446 ft 256 kts 224°
2026-04-14 10:49 -11.04273 -65.87377 4325 ft 244 kts 224°
2026-04-14 10:49 -11.05509 -65.88519 4203 ft 236 kts 218°
2026-04-14 10:49 -11.06811 -65.89526 4097 ft 229 kts 217°
2026-04-14 10:49 -11.08074 -65.90479 3982 ft 222 kts 217°
2026-04-14 10:50 -11.09260 -65.91381 3829 ft 204 kts 217°
2026-04-14 10:50 -11.10295 -65.92274 3617 ft 188 kts 236°
2026-04-14 10:50 -11.10655 -65.93478 3439 ft 173 kts 272°
2026-04-14 10:50 -11.10365 -65.94624 3229 ft 166 kts 301°
2026-04-14 10:51 -11.09697 -65.95570 3078 ft 165 kts 307°
2026-04-14 10:51 -11.09007 -65.96518 2855 ft 166 kts 307°
2026-04-14 10:51 -11.08327 -65.97449 2673 ft 160 kts 307°
2026-04-14 10:51 -11.07674 -65.98339 2471 ft 151 kts 308°
2026-04-14 10:52 -11.07066 -65.99167 2271 ft 140 kts 308°
2026-04-14 10:52 -11.06499 -65.99939 2047 ft 134 kts 308°
2026-04-14 10:52 -11.05949 -66.00686 1901 ft 133 kts 308°
2026-04-14 10:52 -11.05394 -66.01439 1755 ft 136 kts 309°
2026-04-14 10:53 -11.04831 -66.02205 1568 ft 134 kts 309°
2026-04-14 10:53 -11.04271 -66.02963 1397 ft 134 kts 308°
2026-04-14 10:53 -11.03704 -66.03732 1224 ft 137 kts 308°
2026-04-14 10:53 -11.03131 -66.04507 1040 ft 137 kts 307°
2026-04-14 10:54 -11.02555 -66.05284 837 ft 139 kts 307°
2026-04-14 10:54 -11.01982 -66.06060 636 ft 134 kts 307°
2026-04-14 10:54 -11.01434 -66.06810 449 ft 130 kts 307°
2026-04-14 10:54 -11.01013 -66.07379 438 ft 62 kts 307°
2026-04-14 10:55 -11.00879 -66.07561 436 ft 16 kts 308°
2026-04-14 10:55 -11.00816 -66.07557 437 ft 9 kts 28°
2026-04-14 10:55 -11.00760 -66.07530 432 ft 9 kts 15°
2026-04-14 10:55 -11.00703 -66.07542 435 ft 8 kts 325°
2026-04-14 10:56 -11.00674 -66.07542 433 ft 2 kts 41°
2026-04-14 10:56 -11.00670 -66.07537 433 ft 0 kts 53°